Location: San Antonio de Areco
(34.2500°S, 59.4670°W)
Time: 14:32:32
(UTC-03:00)

ISS - Visible Passes

Search period start: 06 March 2015 00:00
Search period end: 16 March 2015 00:00
Orbit: 396 x 408 km, 51.6° (Epoch: 06 March)

Date Brightness Start Highest point End Pass type
(mag) Time Alt. Az. Time Alt. Az. Time Alt. Az.
06 Mar -2.4 20:06:08 10° WNW 20:09:23 51° SW 20:12:41 10° SE visible
07 Mar -0.3 20:51:23 10° WSW 20:53:16 14° SSW 20:55:06 10° S visible
08 Mar -0.9 19:57:20 10° W 20:00:04 23° SSW 20:02:48 10° SSE visible
10 Mar -0.3 19:49:16 10° SW 19:50:48 12° SSW 19:52:15 10° S visible
